GW4477 Weather Reports


time (UTC)temp
C
wind
direction
speed
KPH
gust
KPH
rain 1hr
cm
rain 24hr
cm
rain mn
cm
humidity
%
barometer
mb
20260504201512 28 234 3.2 9.7 0.00 0.00 0.00 17 1003.7
20260504200003 30 188 4.8 9.7 0.00 0.00 0.00 15 1003.8
20260504194510 29 113 6.4 14.5 0.00 0.00 0.00 14 1004.0
20260504193015 29 180 4.8 11.3 0.00 0.00 0.00 16 1004.2
20260504191527 29 121 3.2 9.7 0.00 0.00 0.00 17 1004.4
20260504190016 29 223 4.8 11.3 0.00 0.00 0.00 18 1004.6
20260504184508 30 349 0.0 3.2 0.00 0.00 0.00 18 1004.8
20260504183014 30 350 1.6 4.8 0.00 0.00 0.00 19 1005.1
20260504181518 30 256 1.6 4.8 0.00 0.00 0.00 19 1005.3
20260504180020 29 304 1.6 8.0 0.00 0.00 0.00 19 1005.6
20260504174519 28 338 0.0 14.5 0.00 0.00 0.00 23 1005.9
20260504173010 29 289 0.0 6.4 0.00 0.00 0.00 25 1006.0
20260504171515 28 256 1.6 8.0 0.00 0.00 0.00 26 1006.3
20260504081520 10 271 0.0 3.2 0.00 0.00 0.00 53 1006.9
20260504050022 15 138 0.0 4.8 0.00 0.00 0.00 36 1007.8
20260504044522 15 89 0.0 3.2 0.00 0.00 0.00 36 1007.9
20260504043008 16 146 0.0 3.2 0.00 0.00 0.00 35 1008.0
20260504041514 16 98 0.0 3.2 0.00 0.00 0.00 32 1008.3
20260504040036 16 159 0.0 3.2 0.00 0.00 0.00 31 1008.3
20260504034524 16 163 0.0 0.0 0.00 0.00 0.00 32 1008.4
20260504033028 17 163 0.0 3.2 0.00 0.00 0.00 32 1008.5
20260504031509 17 163 0.0 3.2 0.00 0.00 0.00 30 1008.4
20260504030016 18 130 0.0 3.2 0.00 0.00 0.00 29 1008.2
20260504024522 20 130 1.6 8.0 0.00 0.00 0.00 27 1008.1
20260504023026 21 53 0.0 3.2 0.00 0.00 0.00 25 1008.0
20260504021528 22 33 1.6 8.0 0.00 0.00 0.00 23 1007.9
20260504020013 23 11 4.8 8.0 0.00 0.00 0.00 21 1008.0
20260504014525 23 360 3.2 8.0 0.00 0.00 0.00 19 1007.7
20260504013025 25 352 3.2 8.0 0.00 0.00 0.00 19 1007.7
20260504011525 25 19 6.4 11.3 0.00 0.00 0.00 17 1007.5
20260504010025 26 46 6.4 16.1 0.00 0.00 0.00 17 1007.4
20260504004515 27 17 6.4 17.7 0.00 0.00 0.00 16 1007.4
20260504003023 28 360 6.4 11.3 0.00 0.00 0.00 12 1007.7
20260504001524 29 326 3.2 6.4 0.00 0.00 0.00 12 1007.8
20260504000028 29 313 1.6 4.8 0.00 0.00 0.00 14 1007.8
20260503234526 29 299 1.6 6.4 0.00 0.00 0.00 14 1007.7
20260503233021 28 33 3.2 11.3 0.00 0.00 0.00 14 1007.9
20260503231505 28 257 6.4 19.3 0.00 0.00 0.00 14 1007.9
20260503230009 29 222 6.4 20.9 0.00 0.00 0.00 12 1008.0
20260503224514 30 212 9.7 19.3 0.00 0.00 0.00 13 1008.2
20260503223003 29 290 6.4 19.3 0.00 0.00 0.00 13 1008.5
20260503221507 29 235 9.7 24.1 0.00 0.00 0.00 14 1008.7
20260503220010 29 222 11.3 25.7 0.00 0.00 0.00 14 1008.9
20260503214511 29 185 8.0 22.5 0.00 0.00 0.00 15 1009.2
20260503213021 28 192 9.7 16.1 0.00 0.00 0.00 14 1009.3
20260503211504 28 230 4.8 12.9 0.00 0.00 0.00 13 1009.6
20260503210006 28 213 4.8 19.3 0.00 0.00 0.00 14 1010.0
20260503204513 29 223 8.0 24.1 0.00 0.00 0.00 14 1010.3
20260503203016 28 200 9.7 22.5 0.00 0.00 0.00 14 1010.6